Showing default

IMECE, 56178

Orbit data source: Space-Track

IMECE, 56178 is a payload satellite owned by TUBITAK-UZAY (TR) in SSO that was launched on Sat, 15 Apr 2023 UTC via an FALCON 9 launch vehicle from the Air Force Western Test Range (AFWTR). Payload-class satellites include a variety of spacecraft equipped with specific instruments for various scientific and technological missions. These include communications satellites like Starlink; space stations such as the ISS; scientific satellites like the Hubble; Earth observation satellites from companies like Planet Labs, Umbra, and HawkEye 360; GPS; miniature CubeSats for education and research; and military/defense satellites.

Loading next visibility...
Identifier
56178, 2023-054A
Orbit
SSO
Country
Flag of TRTR / TURK
Related business
Manufacturer
TUBITAK-UZAY
Mission
Operational Civil Imaging
Bus & Motor
IMECE, AOCS
Mass
800 kg wet, ~780 kg dry
Launch date (UTC)
2023-04-15 (3 years ago)
Launch vehicle
FALCON 9
Launch site
Air Force Western Test Range (AFWTR)
Object type
Payload
Rocket body
Debris
Shape & HBR
Hex Cyl + 2 Pan, 4.0 m
Radar Cross Section
4.470 m², Large (>1 m²)

Expand to show TLE details & history
Last TLE update: 8 hours ago

TLE from 8 hours ago
0 IMECE
1 56178U 23054A   26133.27279429  .00000174  00000-0  40752-4 0  9992
2 56178  98.1257  38.4731 0008335 283.0577  76.9695 14.65831876165292
Epoch: 2026-05-13T06:32Z
TLE epoch observation values (Epoch: 2026-05-13T06:32:49.426Z)
Latitude
-0.00012°
Longitude
69.23198°
Altitude
676.08 km
Speed
7.519 km/s
True Right ascension
02h 33m 53s
True Declination
0° 00' 00"
Sunlit
Object was in daylight at epoch
Visualization orbit readout
Latitude
Unknown
Longitude
Unknown
Altitude
Unknown
Speed
Unknown
Apparent Right ascension
Unknown
Apparent Declination
Unknown
Sunlit
N/A
Visualization observer readout
Local Sidereal Time
23:16:09
Azimuth
Unknown
Elevation
Unknown
Doppler factor
Unknown
Orbital elements
Apogee altitude
677.352 km
Perigee altitude
665.6 km
Semi-major axis
7,049.613 km
Eccentricity
0.00083
Inclination
98.1257°
RAAN
38.4731°
Arg. of periapsis
283.0577°
True anomaly
77.06257°
Mean anomaly
76.9695°
Eccentric anomaly
77.01604°
Mean motion
3.66687 °/min
Orbital period
98.18 mins
BSTAR
0.000040752
Loading maneuver chart data...
Computing Atmospheric mass density...
Loading historical data...
Loading historical data...
Loading historical data...
Loading historical data...
Loading historical data...
Loading historical data...
Loading historical data...

Documentation

Showing up to 5 results
|